This demonstration page uses our WeatherBlox Daily Observations layout. Learn more.

Left ArrowRight Arrow

Hourly Observations for April 20, 2018

Temp ( °F °C ) Dew Point ( °F °C ) Humidity (%) Winds ( mph kmh ) Pressure ( in mb ) Visibility ( mi km ) Precip ( " mm )
12:53 am 00:53 Clear 40 4.4 29 -1.7 65 65 NW 3 6 30.37 1029 10 16 0.00 0.00
1:53 am 01:53 Clear 34 1.1 29 -1.7 82 82 NNW 6 9 30.39 1029 10 16 0.00 0.00
2:53 am 02:53 Clear 37 2.8 29 -1.7 73 73 NW 6 9 30.40 1030 10 16 0.00 0.00
3:53 am 03:53 Clear 35 1.7 27 -2.8 72 72 NNW 6 9 30.41 1030 10 16 0.00 0.00
4:53 am 04:53 Clear 31 -0.6 28 -2.2 89 89 Calm 30.43 1030 10 16 0.00 0.00
5:53 am 05:53 Clear 31 -0.6 27 -2.8 85 85 W 3 6 30.44 1031 10 16 0.00 0.00
6:53 am 06:53 Clear 33 0.6 29 -1.7 85 85 Calm 30.46 1031 10 16 0.00 0.00
7:53 am 07:53 Sunny 35 1.7 28 -2.2 76 76 Calm 30.48 1032 10 16 0.00 0.00
8:53 am 08:53 Sunny 41 5 29 -1.7 62 62 NNE 6 9 30.50 1033 10 16 0.00 0.00
9:53 am 09:53 Sunny 45 7.2 30 -1.1 56 56 Calm 30.51 1033 10 16 0.00 0.00
10:53 am 10:53 Sunny 48 8.9 27 -2.8 44 44 ESE 6 9 30.52 1033 10 16 0.00 0.00
11:53 am 11:53 Sunny 51 10.6 28 -2.2 41 41 undefined N/A 30.51 1033 10 16 0.00 0.00
12:53 pm 12:53 Sunny 53 11.7 26 -3.3 35 35 Calm 30.50 1033 10 16 0.00 0.00
1:53 pm 13:53 Sunny 55 12.8 27 -2.8 34 34 NE 8 13 30.48 1032 10 16 0.00 0.00
2:53 pm 14:53 Sunny 57 13.9 28 -2.2 33 33 VRB 6 9 30.47 1032 10 16 0.00 0.00
3:53 pm 15:53 Sunny 58 14.4 25 -3.9 28 28 NNE 6 9 30.46 1032 10 16 0.00 0.00
4:53 pm 16:53 Sunny 59 15 25 -3.9 27 27 NE 8 13 30.44 1031 10 16 0.00 0.00
5:53 pm 17:53 Sunny 59 15 25 -3.9 27 27 ENE 7 11 30.43 1030 10 16 0.00 0.00
6:53 pm 18:53 Sunny 58 14.4 24 -4.4 27 27 ENE 7 11 30.42 1030 10 16 0.00 0.00
7:53 pm 19:53 Sunny 54 12.2 30 -1.1 40 40 N 3 6 30.42 1030 10 16 0.00 0.00
8:53 pm 20:53 Clear 45 7.2 34 1.1 66 66 NNE 3 6 30.43 1031 10 16 0.00 0.00
9:53 pm 21:53 Clear 44 6.7 32 0 63 63 NNE 3 6 30.44 1031 10 16 0.00 0.00
10:53 pm 22:53 Clear 44 6.7 36 2.2 73 73 Calm 30.44 1031 10 16 0.00 0.00
11:53 pm 23:53 Clear 40 4.4 33 0.6 77 77 Calm 30.43 1031 10 16 0.00 0.00

Powered by AerisWeather